User: anonymous   Login
Location: Fenile
(46.0500°N, 9.5500°E)
Time: 14:57:02
(UTC+00:00)
Language:

Cosmos 1844 - Orbit

View from above orbital plane
View from above orbital plane
View from above satellite
View from above satellite

Ground track
Ground track

The orbit data is extracted from the following two-line orbital elements,

1 17973U 87041A   21129.24615130  .00000322  00000-0  19377-3 0  9991
2 17973  70.8975 156.3728 0030164 155.7944 204.4602 14.14122060753976
Epoch (UTC): 09 May 2021 05:54:27
Eccentricity: 0.0030164
inclination: 70.8975°
perigee height: 823 km
apogee height: 867 km
right ascension of ascending node: 156.3728°
argument of perigee: 155.7944°
revolutions per day: 14.14122060
mean anomaly at epoch: 204.4602°
orbit number at epoch: 75397

The dashed part of the orbit path shows where the satellite is in the earth's shadow,  

DLR